When you browse on this site, cookies collect data to enhance your experience and personalize the content and advertising you see.
Visit our Privacy Policy to learn more. By continuing to use the site, you agree to this use of cookies and data.
  • In Denmark
  • List of Countries
  • For 7 days
  • Water Temperature
  • Satellite Maps
  • Weather Map
  • Weather Widgets
  • user-avatar
    Login

    Hourly Weather Baltabay

    Today, 19 December, Wednesday

    Time Temperature Precipitation Wind Pressure Humidity
    00:00 -2°C° 0 mm 2 mps 708 mmHg 61%
    01:00 0°C° 0 mm 1 mps 708 mmHg 61%
    02:00 0°C° 0 mm 1 mps 708 mmHg 60%
    03:00 0°C° 0 mm 1 mps 708 mmHg 62%
    04:00 0°C° 0 mm 1 mps 708 mmHg 64%
    05:00 -3°C° 0 mm 2 mps 708 mmHg 71%
    06:00 0°C° 0.1 mm 1 mps 708 mmHg 71%
    07:00 0°C° 0.1 mm 1 mps 708 mmHg 72%
    08:00 0°C° 0.1 mm 1 mps 708 mmHg 72%
    09:00 +1°C° 0.1 mm 1 mps 708 mmHg 70%
    10:00 +2°C° 0.1 mm 1 mps 708 mmHg 68%
    11:00 +2°C° 0.1 mm 2 mps 707 mmHg 66%
    12:00 +2°C° 0.1 mm 2 mps 707 mmHg 67%
    13:00 +2°C° 0.1 mm 2 mps 707 mmHg 67%
    14:00 +2°C° 0.1 mm 2 mps 707 mmHg 67%
    15:00 +3°C° 0.1 mm 1 mps 708 mmHg 70%
    16:00 +2°C° 0.1 mm 1 mps 708 mmHg 73%
    17:00 +1°C° 0.1 mm 1 mps 708 mmHg 76%
    18:00 +1°C° 0.1 mm 1 mps 708 mmHg 76%
    19:00 +1°C° 0.1 mm 1 mps 709 mmHg 76%
    20:00 +1°C° 0.1 mm 1 mps 709 mmHg 75%
    21:00 +1°C° 0.1 mm 1 mps 709 mmHg 76%
    22:00 +1°C° 0.1 mm 1 mps 709 mmHg 77%
    23:00 +1°C° 0.1 mm 1 mps 710 mmHg 77%

    Tomorrow, 20 December, Thursday

    Time Temperature Precipitation Wind Pressure Humidity
    00:00 +1°C° 0.2 mm 1 mps 710 mmHg 79%
    01:00 +1°C° 0.2 mm 1 mps 710 mmHg 81%
    02:00 0°C° 0.2 mm 1 mps 710 mmHg 83%
    03:00 0°C° 0.3 mm 1 mps 711 mmHg 85%
    04:00 0°C° 0.3 mm 1 mps 711 mmHg 86%
    05:00 0°C° 0.3 mm 1 mps 712 mmHg 88%
    06:00 -2°C° 0.3 mm 2 mps 712 mmHg 88%
    07:00 -2°C° 0.3 mm 2 mps 713 mmHg 88%
    08:00 -2°C° 0.3 mm 2 mps 713 mmHg 88%
    09:00 -2°C° 0.3 mm 2 mps 713 mmHg 86%
    10:00 -2°C° 0.3 mm 2 mps 714 mmHg 85%
    11:00 -1°C° 0.3 mm 2 mps 714 mmHg 83%
    12:00 -1°C° 0.2 mm 2 mps 714 mmHg 83%
    13:00 -1°C° 0.2 mm 3 mps 714 mmHg 83%
    14:00 -1°C° 0.2 mm 3 mps 714 mmHg 83%
    15:00 -2°C° 0.1 mm 3 mps 714 mmHg 85%
    16:00 -3°C° 0.1 mm 2 mps 715 mmHg 87%
    17:00 -3°C° 0.1 mm 2 mps 715 mmHg 88%
    18:00 -4°C° 0.1 mm 2 mps 715 mmHg 88%
    19:00 -4°C° 0.1 mm 2 mps 716 mmHg 87%
    20:00 -4°C° 0.1 mm 2 mps 716 mmHg 86%
    21:00 -4°C° 0.1 mm 2 mps 716 mmHg 85%
    22:00 -5°C° 0.1 mm 2 mps 716 mmHg 83%
    23:00 -5°C° 0.1 mm 2 mps 716 mmHg 82%

    Day after tomorrow, 21 December, Friday

    Time Temperature Precipitation Wind Pressure Humidity
    00:00 -5°C° 0 mm 2 mps 717 mmHg 81%
    01:00 -5°C° 0 mm 2 mps 717 mmHg 80%
    02:00 -5°C° 0 mm 2 mps 717 mmHg 79%
    03:00 -5°C° 0 mm 2 mps 717 mmHg 77%
    04:00 -5°C° 0 mm 2 mps 717 mmHg 75%
    05:00 -6°C° 0 mm 2 mps 717 mmHg 73%
    06:00 -6°C° 0 mm 2 mps 717 mmHg 72%
    07:00 -6°C° 0 mm 2 mps 717 mmHg 71%
    08:00 -6°C° 0 mm 2 mps 717 mmHg 69%
    09:00 -4°C° 0 mm 2 mps 716 mmHg 68%
    10:00 -3°C° 0 mm 2 mps 716 mmHg 66%
    11:00 -2°C° 0 mm 2 mps 715 mmHg 65%
    12:00 -2°C° 0 mm 3 mps 714 mmHg 66%
    13:00 -1°C° 0 mm 3 mps 714 mmHg 66%
    14:00 -2°C° 0 mm 4 mps 713 mmHg 67%
    15:00 -3°C° 0 mm 4 mps 713 mmHg 70%
    16:00 -4°C° 0 mm 4 mps 713 mmHg 73%
    17:00 -5°C° 0 mm 4 mps 713 mmHg 75%
    18:00 -6°C° 0 mm 5 mps 713 mmHg 73%
    19:00 -6°C° 0 mm 5 mps 712 mmHg 70%
    20:00 -5°C° 0 mm 6 mps 712 mmHg 68%
    21:00 -5°C° 0 mm 6 mps 712 mmHg 65%
    22:00 -5°C° 0 mm 6 mps 711 mmHg 62%
    23:00 -5°C° 0 mm 6 mps 711 mmHg 59%

    22 December, Saturday

    Time Temperature Precipitation Wind Pressure Humidity
    00:00 -5°C° 0 mm 6 mps 710 mmHg 58%
    01:00 -5°C° 0 mm 6 mps 710 mmHg 56%
    02:00 -5°C° 0 mm 6 mps 709 mmHg 54%
    03:00 -5°C° 0 mm 6 mps 709 mmHg 52%
    04:00 -4°C° 0 mm 6 mps 708 mmHg 51%
    05:00 -4°C° 0 mm 6 mps 707 mmHg 50%
    06:00 -4°C° 0 mm 6 mps 707 mmHg 49%
    07:00 -4°C° 0 mm 6 mps 707 mmHg 48%
    08:00 -4°C° 0 mm 5 mps 707 mmHg 48%
    09:00 -2°C° 0 mm 5 mps 707 mmHg 47%
    10:00 -2°C° 0 mm 6 mps 706 mmHg 46%
    11:00 +1°C° 0 mm 6 mps 706 mmHg 45%
    12:00 +1°C° 0 mm 5 mps 706 mmHg 47%
    13:00 +1°C° 0 mm 5 mps 705 mmHg 48%
    14:00 +1°C° 0 mm 4 mps 705 mmHg 50%
    15:00 0°C° 0 mm 4 mps 705 mmHg 52%
    16:00 0°C° 0 mm 3 mps 705 mmHg 55%
    17:00 -1°C° 0 mm 3 mps 705 mmHg 57%
    18:00 -1°C° 0 mm 3 mps 705 mmHg 57%
    19:00 +1°C° 0 mm 2 mps 706 mmHg 57%
    20:00 +1°C° 0 mm 2 mps 706 mmHg 58%
    21:00 +1°C° 0.1 mm 2 mps 706 mmHg 58%
    22:00 +1°C° 0.1 mm 2 mps 706 mmHg 58%
    23:00 +1°C° 0.1 mm 2 mps 706 mmHg 58%

    23 December, Sunday

    Time Temperature Precipitation Wind Pressure Humidity
    00:00 +1°C° 0.1 mm 2 mps 706 mmHg 59%
    01:00 +1°C° 0.1 mm 2 mps 706 mmHg 59%
    02:00 +1°C° 0.1 mm 2 mps 706 mmHg 59%
    03:00 +1°C° 0.1 mm 2 mps 706 mmHg 60%
    04:00 +2°C° 0.1 mm 1 mps 706 mmHg 60%
    05:00 +2°C° 0.1 mm 1 mps 706 mmHg 60%
    06:00 +2°C° 0.1 mm 1 mps 706 mmHg 60%
    07:00 +2°C° 0.1 mm 1 mps 707 mmHg 60%
    08:00 +2°C° 0.1 mm 1 mps 707 mmHg 60%
    09:00 +2°C° 0.1 mm 2 mps 707 mmHg 59%
    10:00 +3°C° 0.1 mm 2 mps 707 mmHg 57%
    11:00 +3°C° 0.1 mm 2 mps 707 mmHg 56%
    12:00 +4°C° 0.1 mm 2 mps 707 mmHg 57%
    13:00 +4°C° 0.1 mm 2 mps 707 mmHg 58%
    14:00 +4°C° 0.1 mm 2 mps 707 mmHg 59%
    15:00 +3°C° 0.1 mm 2 mps 707 mmHg 62%
    16:00 +3°C° 0.1 mm 1 mps 708 mmHg 65%
    17:00 +2°C° 0.1 mm 1 mps 708 mmHg 68%
    18:00 +2°C° 0.1 mm 1 mps 708 mmHg 68%
    19:00 +2°C° 0.1 mm 1 mps 709 mmHg 68%
    20:00 +2°C° 0.1 mm 1 mps 709 mmHg 68%
    21:00 +2°C° 0.1 mm 1 mps 709 mmHg 69%
    22:00 +2°C° 0.1 mm 1 mps 709 mmHg 70%
    23:00 +1°C° 0.1 mm 1 mps 709 mmHg 71%

    24 December, Monday

    Time Temperature Precipitation Wind Pressure Humidity
    00:00 +1°C° 0.1 mm 1 mps 709 mmHg 72%
    01:00 +1°C° 0.1 mm 1 mps 709 mmHg 73%
    02:00 +1°C° 0.1 mm 1 mps 709 mmHg 73%
    03:00 +1°C° 0.1 mm 1 mps 709 mmHg 74%
    04:00 +1°C° 0.1 mm 1 mps 709 mmHg 75%
    05:00 +1°C° 0.1 mm 1 mps 709 mmHg 75%
    06:00 +1°C° 0.1 mm 1 mps 709 mmHg 76%
    07:00 +1°C° 0.1 mm 1 mps 710 mmHg 76%
    08:00 +1°C° 0.1 mm 1 mps 710 mmHg 76%
    09:00 +2°C° 0.1 mm 1 mps 710 mmHg 74%
    10:00 +2°C° 0.1 mm 2 mps 709 mmHg 72%
    11:00 +2°C° 0.1 mm 2 mps 709 mmHg 70%
    12:00 +3°C° 0.1 mm 2 mps 709 mmHg 70%
    13:00 +3°C° 0.1 mm 2 mps 709 mmHg 71%
    14:00 +3°C° 0.1 mm 2 mps 709 mmHg 71%
    15:00 +2°C° 0.1 mm 2 mps 709 mmHg 74%
    16:00 +2°C° 0.1 mm 1 mps 709 mmHg 77%
    17:00 +2°C° 0.1 mm 1 mps 709 mmHg 80%
    18:00 +2°C° 0.1 mm 1 mps 709 mmHg 80%
    19:00 +2°C° 0.1 mm 1 mps 710 mmHg 79%
    20:00 +1°C° 0.1 mm 1 mps 710 mmHg 79%
    21:00 -1°C° 0.1 mm 2 mps 710 mmHg 78%
    22:00 -1°C° 0.1 mm 2 mps 710 mmHg 78%
    23:00 -1°C° 0.1 mm 2 mps 710 mmHg 78%
    Show more